Latest Coastal Weather Observations for Low Rocky Point

IDT60701

Issued at 8:21 pm EST Saturday 4 July 2015 (issued every 10 minutes, with the page automatically refreshed every 10 minutes)

About coastal observations | Map of coastal stations | Coastal observations for TAS | Marine services | Other Formats
Station Details ID: 097080 Name: LOW ROCKY POINT Lat: -42.98 Lon: 145.50 Height: 34.0 m
Data from the previous 72 hours. | See also: Recent months at Low Rocky Point
Date/Time
EST
Temp

°C
Wind Pressure Rain
since 9am
mm
Weather Cloud Vis
km
Sea
Height
m
Swell
Dir
 
Speed
knots
Gust
knots
hPa Trend Height
m
Period
s
Dir
04/08:00pm 10.1 WNW 16 20 1015.2 - 0.0 - - - - - - -
04/07:30pm 9.9 W 16 21 1015.2 - 0.0 - - - - - - -
04/07:00pm 9.9 W 15 18 1015.1 - 0.0 - - - - - - -
04/06:30pm 9.9 W 14 18 1014.9 - 0.0 - - - - - - -
04/06:00pm 10.0 W 15 19 1014.8 - 0.0 - - - - - - -
04/05:30pm 9.8 W 17 21 1014.5 - 0.0 - - - - - - -
04/05:00pm 10.0 W 17 21 1014.3 - 0.0 - - - - - - -
04/04:30pm 10.1 W 19 23 1014.4 - 0.0 - - - - - - -
04/04:00pm 10.3 W 17 20 1014.3 - 0.0 - - - - - - -
04/03:30pm 10.4 W 17 21 1014.4 - 0.0 - - - - - - -
04/03:00pm 10.2 W 16 21 1014.2 - 0.0 - - - - - - -
04/02:30pm 10.4 W 16 20 1014.1 - 0.0 - - - - - - -
04/02:00pm 10.4 W 16 20 1014.1 - 0.0 - - - - - - -
04/01:30pm 10.3 W 18 23 1014.0 - 0.0 - - - - - - -
04/01:00pm 10.4 W 19 25 1013.8 - 0.0 - - - - - - -
04/12:30pm 10.5 W 19 23 1014.0 - 0.0 - - - - - - -
04/12:00pm 10.5 W 19 23 1014.2 - 0.0 - - - - - - -
04/11:30am 10.3 W 21 26 1014.4 - 0.0 - - - - - - -
04/11:00am 10.6 W 20 25 1014.5 - 0.0 - - - - - - -
04/10:30am 10.2 WSW 20 26 1014.3 - 0.0 - - - - - - -
04/10:00am 10.5 W 22 27 1014.0 - 0.0 - - - - - - -
04/09:30am 10.4 WSW 19 24 1013.8 - 0.0 - - - - - - -
04/09:00am 10.2 WSW 18 22 1013.6 - 11.0 - - - - - - -
04/08:30am 10.3 W 23 28 1013.1 - 11.0 - - - - - - -
04/08:00am 10.1 W 21 27 1012.9 - 11.0 - - - - - - -
04/07:30am 10.2 W 21 25 1012.6 - 11.0 - - - - - - -
04/07:00am 10.5 W 20 25 1012.4 - 11.0 Recent precip. - - - - - -
04/06:30am 10.4 W 22 27 1012.1 - 10.8 - - - - - - -
04/06:00am 11.0 W 22 27 1011.8 - 10.8 - - - - - - -
04/05:30am 10.7 W 21 26 1011.5 - 10.8 - - - - - - -
04/05:00am 10.9 W 22 27 1011.3 - 10.8 Rain - - - - - -
04/04:30am 10.9 W 27 33 1011.1 - 10.6 - - - - - - -
04/04:00am 11.3 WNW 26 32 1011.0 - 10.4 Recent precip. - - - - - -
04/03:30am 11.2 W 29 36 1010.9 - 10.4 - - - - - - -
04/03:00am 10.7 WNW 31 38 1011.1 - 9.4 Rain - - - - - -
04/02:41am 11.5 NW 29 39 1010.5 - 7.6 - - - - - - -
04/02:30am 11.5 NW 31 39 1010.6 - 7.2 - - - - - - -
04/02:00am 11.3 NW 26 32 1011.0 - 6.4 Rain - - - - - -
04/01:30am 11.3 NW 28 36 1011.3 - 6.0 - - - - - - -
04/01:00am 11.0 NW 27 33 1011.9 - 5.6 Rain - - - - - -
04/12:30am 10.9 NW 28 35 1012.1 - 5.4 - - - - - - -
04/12:00am 10.9 NW 29 36 1012.7 - 4.2 Recent precip. - - - - - -
 
Date/Time
EST
Temp

°C
Wind Pressure Rain
since 9am
mm
Weather Cloud Vis
km
Sea
Height
m
Swell
Dir
 
Speed
knots
Gust
knots
hPa Trend Height
m
Period
s
Dir
03/11:49pm 10.8 NW 26 36 1012.7 - 4.0 - - - - - - -
03/11:30pm 10.7 NW 30 37 1012.9 - 3.8 - - - - - - -
03/11:18pm 10.7 NW 27 53 1013.0 - 3.6 - - - - - - -
03/11:00pm 10.8 NW 27 35 1013.4 - 3.4 Recent precip. - - - - - -
03/10:30pm 10.5 NW 29 35 1013.7 - 3.4 - - - - - - -
03/10:01pm 10.2 NW 29 43 1013.9 - 2.8 - - - - - - -
03/10:00pm 10.3 NW 29 36 1014.0 - 2.8 Recent precip. - - - - - -
03/09:39pm 9.8 NW 27 37 1014.4 - 2.8 - - - - - - -
03/09:30pm 9.8 WNW 32 40 1014.6 - 2.6 - - - - - - -
03/09:06pm 10.6 NW 31 43 1014.6 - 1.8 - - - - - - -
03/09:00pm 10.6 NW 30 38 1014.5 - 1.8 - - - - - - -
03/08:32pm 10.1 NW 29 39 1015.0 - 1.8 - - - - - - -
03/08:30pm 9.9 NW 30 39 1015.0 - 1.8 - - - - - - -
03/08:01pm 9.8 NW 29 39 1015.3 - 1.8 - - - - - - -
03/08:00pm 9.7 NW 29 37 1015.3 - 1.8 Recent precip. - - - - - -
03/07:48pm 9.1 NW 29 39 1015.7 - 1.8 - - - - - - -
03/07:30pm 9.8 NW 30 37 1015.6 - 1.2 - - - - - - -
03/07:00pm 9.4 NW 31 41 1015.9 - 1.2 - - - - - - -
03/06:50pm 9.9 NW 30 42 1015.8 - 1.2 - - - - - - -
03/06:30pm 9.6 NW 29 35 1016.0 - 1.2 - - - - - - -
03/06:00pm 9.3 NW 31 39 1016.6 - 1.2 Rain - - - - - -
03/05:47pm 9.5 NW 27 37 1016.4 - 1.0 - - - - - - -
03/05:30pm 9.5 NW 29 38 1016.6 - 1.0 - - - - - - -
03/05:04pm 9.7 NW 28 42 1016.9 - 1.0 - - - - - - -
03/05:00pm 9.5 NW 28 35 1017.1 - 1.0 - - - - - - -
03/04:30pm 9.4 NW 28 35 1017.3 - 1.0 - - - - - - -
03/04:00pm 8.9 NW 32 40 1017.6 - 1.0 Recent precip. - - - - - -
03/03:30pm 9.6 NW 27 33 1017.8 - 0.8 - - - - - - -
03/03:10pm 9.5 NW 27 37 1017.7 - 0.8 - - - - - - -
03/03:00pm 9.8 NW 26 33 1017.9 - 0.8 - - - - - - -
03/02:42pm 9.4 NW 28 38 1017.9 - 0.8 - - - - - - -
03/02:30pm 9.1 WNW 27 35 1018.1 - 0.8 - - - - - - -
03/02:00pm 9.7 NW 26 35 1018.6 - 0.8 Recent precip. - - - - - -
03/01:51pm 9.5 NW 25 35 1018.8 - 0.8 - - - - - - -
03/01:30pm 9.5 WNW 25 33 1019.2 - 0.8 - - - - - - -
03/01:00pm 9.3 WNW 22 27 1019.9 - 0.6 - - - - - - -
03/12:30pm 9.5 WNW 22 27 1020.3 - 0.6 - - - - - - -
03/12:00pm 9.0 NW 22 28 1020.9 - 0.6 Recent precip. - - - - - -
03/11:30am 8.8 WNW 22 27 1021.5 - 0.4 - - - - - - -
03/11:00am 9.9 NW 22 30 1022.0 - 0.2 - - - - - - -
03/10:30am 8.9 WNW 25 30 1022.2 - 0.2 - - - - - - -
03/10:00am 8.3 NW 19 26 1022.6 - 0.2 Recent precip. - - - - - -
03/09:35am 8.7 NW 17 27 1022.6 - 0.2 - - - - - - -
03/09:30am 8.6 NW 16 23 1022.7 - 0.2 - - - - - - -
03/09:00am 8.4 NW 18 23 1022.9 - 2.6 - - - - - - -
03/08:30am 8.9 NW 15 22 1022.8 - 2.6 - - - - - - -
03/08:04am 9.4 NW 17 27 1022.8 - 2.6 - - - - - - -
03/08:00am 9.1 NW 16 21 1022.9 - 2.6 - - - - - - -
03/07:30am 9.2 WNW 14 23 1022.6 - 2.6 - - - - - - -
03/07:00am 8.4 WNW 15 20 1022.9 - 2.6 - - - - - - -
03/06:30am 8.6 WNW 13 17 1022.7 - 2.6 - - - - - - -
03/06:00am 9.1 WNW 15 20 1022.7 - 2.6 - - - - - - -
03/05:30am 8.9 WNW 14 16 1022.7 - 2.6 - - - - - - -
03/05:00am 9.1 WNW 14 18 1022.9 - 2.6 - - - - - - -
03/04:30am 8.9 WNW 16 19 1022.9 - 2.6 - - - - - - -
03/04:00am 8.0 WNW 9 14 1023.4 - 2.6 - - - - - - -
03/03:30am 8.3 WNW 15 19 1023.8 - 2.6 - - - - - - -
03/03:00am 8.2 W 12 15 1024.1 - 2.6 - - - - - - -
03/02:30am 8.1 W 14 17 1024.4 - 2.6 - - - - - - -
03/02:00am 8.1 W 17 20 1024.3 - 2.6 - - - - - - -
03/01:30am 8.4 W 15 21 1024.2 - 2.6 - - - - - - -
03/01:00am 8.2 W 17 23 1024.3 - 2.6 Recent precip. - - - - - -
03/12:30am 7.8 WNW 12 15 1024.5 - 2.6 - - - - - - -
03/12:13am 7.5 W 16 20 1024.5 - 2.6 - - - - - - -
03/12:00am 8.0 W 19 25 1024.5 - 2.4 - - - - - - -
 
Date/Time
EST
Temp

°C
Wind Pressure Rain
since 9am
mm
Weather Cloud Vis
km
Sea
Height
m
Swell
Dir
 
Speed
knots
Gust
knots
hPa Trend Height
m
Period
s
Dir
02/11:30pm 8.4 W 14 19 1024.5 - 2.4 - - - - - - -
02/11:00pm 8.0 W 14 16 1024.5 - 2.4 Recent precip. - - - - - -
02/10:30pm 7.9 SW 15 21 1024.6 - 2.4 - - - - - - -
02/10:00pm 7.2 WSW 9 12 1024.6 - 2.2 - - - - - - -
02/09:38pm 7.7 SW 15 25 1024.4 - 2.2 - - - - - - -
02/09:30pm 7.9 SW 13 19 1024.3 - 2.2 - - - - - - -
02/09:00pm 8.0 WSW 12 18 1024.2 - 2.2 - - - - - - -
02/08:30pm 7.9 WSW 15 20 1023.8 - 2.2 - - - - - - -
02/08:00pm 8.0 WSW 14 19 1023.6 - 2.2 - - - - - - -
02/07:30pm 7.6 SW 17 23 1023.2 - 2.2 - - - - - - -
02/07:00pm 7.2 SW 12 21 1022.7 - 2.2 Recent precip. - - - - - -
02/06:30pm 7.0 SW 15 19 1022.3 - 2.2 - - - - - - -
02/06:00pm 7.2 WSW 16 24 1022.0 - 2.0 - - - - - - -
02/05:40pm 7.8 SW 16 27 1021.7 - 2.0 - - - - - - -
02/05:30pm 7.6 SW 15 21 1021.6 - 2.0 - - - - - - -
02/05:00pm 7.7 SW 13 20 1021.5 - 2.0 - - - - - - -
02/04:53pm 6.9 SSW 16 26 1021.4 - 2.0 - - - - - - -
02/04:47pm 7.2 SSW 19 26 1021.3 - 2.0 - - - - - - -
02/04:30pm 7.7 SW 17 24 1021.0 - 2.0 - - - - - - -
02/04:00pm 6.9 SW 17 27 1020.5 - 2.0 Rain - - - - - -
02/03:48pm 7.7 SW 15 29 1020.3 - 1.8 - - - - - - -
02/03:30pm 7.8 WSW 16 23 1020.1 - 1.8 - - - - - - -
02/03:06pm 6.8 WSW 21 31 1020.1 - 1.8 - - - - - - -
02/03:00pm 8.2 WSW 21 28 1019.9 - 1.8 - - - - - - -
02/02:44pm 8.4 WSW 17 27 1019.5 - 1.8 - - - - - - -
02/02:30pm 8.0 WSW 18 25 1019.3 - 1.8 - - - - - - -
02/02:02pm 7.8 WSW 18 30 1018.9 - 1.8 - - - - - - -
02/02:00pm 8.0 WSW 17 24 1018.9 - 1.8 Recent precip. - - - - - -
02/01:34pm 6.5 SW 18 28 1018.7 - 1.8 - - - - - - -
02/01:30pm 6.0 SW 21 30 1018.8 - 1.8 - - - - - - -
02/01:15pm 8.0 SW 20 31 1018.4 - 1.4 - - - - - - -
02/01:00pm 7.8 SW 20 27 1018.2 - 1.4 Recent precip. - - - - - -
02/12:30pm 7.6 SW 21 31 1017.6 - 1.4 - - - - - - -
02/12:06pm 6.7 SW 20 30 1017.9 - 1.4 - - - - - - -
02/12:00pm 7.5 WSW 22 31 1017.8 - 1.0 Rain - - - - - -
02/11:30am 9.0 SW 21 29 1017.1 - 0.8 - - - - - - -
02/11:00am 8.3 SW 23 31 1016.9 - 0.8 Recent precip. - - - - - -
02/10:30am 6.7 SW 20 32 1016.2 - 0.8 - - - - - - -
02/10:00am 7.0 SW 22 39 1015.5 - 0.2 Rain - - - - - -
02/09:30am 7.8 SW 23 33 1015.0 - 0.0 - - - - - - -
02/09:00am 8.2 WSW 21 31 1014.1 - 10.8 Recent precip. - - - - - -
02/08:51am 7.8 WSW 18 28 1013.8 - 10.8 - - - - - - -
02/08:30am 6.9 WSW 14 24 1013.7 - 10.8 - - - - - - -
02/08:00am 8.7 WSW 19 29 1012.8 - 10.6 - - - - - - -
02/07:44am 8.5 WSW 20 30 1012.3 - 10.6 - - - - - - -
02/07:30am 8.2 WSW 21 30 1011.8 - 10.6 - - - - - - -
02/07:00am 7.8 SW 19 29 1011.2 - 10.6 - - - - - - -
02/06:43am 8.7 WSW 21 32 1010.8 - 10.6 - - - - - - -
02/06:30am 9.0 WSW 22 29 1010.6 - 10.6 - - - - - - -
02/06:24am 9.0 WSW 19 29 1010.3 - 10.6 - - - - - - -
02/06:00am 8.6 WSW 20 28 1010.0 - 10.6 - - - - - - -
02/05:30am 8.7 WSW 22 29 1009.4 - 10.6 - - - - - - -
02/05:00am 7.9 WSW 20 29 1009.2 - 10.6 - - - - - - -
02/04:49am 8.1 WSW 24 34 1009.1 - 10.6 - - - - - - -
02/04:30am 8.6 W 27 34 1008.7 - 10.6 - - - - - - -
02/04:00am 8.7 W 27 35 1008.5 - 10.6 - - - - - - -
02/03:30am 8.8 W 27 35 1008.5 - 10.6 - - - - - - -
02/03:00am 8.6 W 29 35 1008.3 - 10.6 - - - - - - -
02/02:30am 8.8 W 29 35 1008.0 - 10.6 - - - - - - -
02/02:00am 8.4 W 27 36 1008.0 - 10.6 - - - - - - -
02/01:30am 8.0 W 30 41 1007.9 - 10.6 - - - - - - -
02/01:04am 8.9 W 29 39 1007.9 - 10.6 - - - - - - -
02/01:00am 8.9 W 30 39 1007.8 - 10.6 Recent precip. - - - - - -
02/12:30am 8.1 W 31 40 1007.8 - 10.6 - - - - - - -
02/12:10am 8.3 W 32 46 1007.7 - 10.6 - - - - - - -
02/12:00am 9.1 W 34 41 1007.4 - 10.4 - - - - - - -
 
Date/Time
EST
Temp

°C
Wind Pressure Rain
since 9am
mm
Weather Cloud Vis
km
Sea
Height
m
Swell
Dir
 
Speed
knots
Gust
knots
hPa Trend Height
m
Period
s
Dir
01/11:30pm 8.9 W 31 41 1007.3 - 10.4 - - - - - - -
01/11:04pm 8.8 W 30 41 1007.1 - 10.4 - - - - - - -
01/11:00pm 8.3 W 30 37 1007.4 - 10.4 Recent precip. - - - - - -
01/10:53pm 9.2 W 33 43 1007.2 - 10.4 - - - - - - -
01/10:30pm 8.9 W 31 39 1007.2 - 10.4 - - - - - - -
01/10:16pm 8.1 WNW 35 43 1007.0 - 10.4 - - - - - - -
01/10:02pm 8.8 W 40 55 1006.8 - 10.2 - - - - - - -
01/10:00pm 9.5 W 38 49 1006.8 - 10.2 - - - - - - -
01/09:31pm 9.7 W 31 41 1006.4 - 10.2 - - - - - - -
01/09:30pm 10.5 W 30 37 1006.4 - 10.2 - - - - - - -
01/09:01pm 10.2 WNW 35 45 1006.4 - 10.2 - - - - - - -
01/09:00pm 10.3 WNW 34 43 1006.5 - 10.2 - - - - - - -
01/08:30pm 10.3 WNW 31 39 1006.3 - 10.2 - - - - - - -

Other Formats:

Comma delimited format used in spreadsheet applications
http://www.bom.gov.au/fwo/IDT60701/IDT60701.95961.axf

JavaScript Object Notation format (JSON) in row-major order
http://www.bom.gov.au/fwo/IDT60701/IDT60701.95961.json